CW2969 Weather Reports


time (UTC)temp
F
wind
direction
speed
knots
gust
knots
rain 1hr
in
rain 24hr
in
rain mn
in
humidity
%
barometer
mb
20260509042514 75 165 0.0 1.7 0.00 0.00 0.00 81 1008.9
20260509042015 75 177 0.0 1.7 0.00 0.00 0.00 81 1008.8
20260509041514 75 161 0.9 1.7 0.00 0.00 0.00 81 1009.0
20260509041014 75 200 0.0 0.9 0.00 0.00 0.00 81 1009.2
20260509040514 75 200 0.0 0.9 0.00 0.00 0.00 81 1009.2
20260509035514 75 130 0.0 0.0 0.00 0.00 0.00 81 1009.1
20260509035014 76 130 0.0 0.0 0.00 0.00 0.00 80 1009.1
20260509034514 76 130 0.0 0.0 0.00 0.00 0.00 80 1009.1
20260509034014 76 130 0.0 0.0 0.00 0.00 0.00 80 1008.9
20260509033514 76 130 0.0 0.0 0.00 0.00 0.00 80 1009.0
20260509033014 76 130 0.0 0.9 0.00 0.00 0.00 80 1008.9
20260509032514 76 130 0.0 2.6 0.00 0.00 0.00 80 1008.9
20260509032014 76 121 1.7 2.6 0.00 0.00 0.00 80 1008.8
20260509031514 76 157 0.9 2.6 0.00 0.00 0.00 80 1008.7
20260509031014 77 205 0.0 2.6 0.00 0.00 0.00 80 1008.7
20260509030514 77 130 0.0 3.5 0.00 0.00 0.00 80 1008.6
20260509025514 77 151 0.0 1.7 0.00 0.00 0.00 80 1008.6
20260509025014 77 152 0.0 1.7 0.00 0.00 0.00 79 1008.6
20260509024514 77 157 0.0 0.9 0.00 0.00 0.00 79 1008.5
20260509024014 77 129 0.0 0.0 0.00 0.00 0.00 79 1008.6
20260509023513 77 105 0.0 0.0 0.00 0.00 0.00 79 1008.5
20260509022514 77 105 0.9 1.7 0.00 0.00 0.00 79 1008.4
20260509022014 77 105 0.0 1.7 0.00 0.00 0.00 79 1008.2
20260509021014 78 190 1.7 5.2 0.00 0.00 0.00 78 1008.0
20260509020514 78 150 0.9 1.7 0.00 0.00 0.00 78 1007.8
20260509020013 78 123 0.0 2.6 0.00 0.00 0.00 78 1007.7
20260509015513 78 96 0.0 3.5 0.00 0.00 0.00 78 1007.6
20260509015013 78 101 0.0 3.5 0.00 0.00 0.00 78 1007.6
20260509014514 78 154 0.9 2.6 0.00 0.00 0.00 78 1007.7
20260509013513 78 138 4.3 4.3 0.00 0.00 0.00 77 1007.7
20260509012513 78 124 1.7 1.7 0.00 0.00 0.00 77 1007.8
20260509012013 78 102 0.9 7.0 0.00 0.00 0.00 77 1007.7
20260509011513 78 172 4.3 7.0 0.00 0.00 0.00 77 1007.7
20260509011013 79 98 1.7 5.2 0.00 0.00 0.00 77 1007.7
20260509010512 79 117 0.0 1.7 0.00 0.00 0.00 77 1007.6
20260509010013 79 74 0.9 3.5 0.00 0.00 0.00 77 1007.6
20260509005512 79 121 0.9 3.5 0.00 0.00 0.00 76 1007.6
20260509005013 79 201 3.5 3.5 0.00 0.00 0.00 76 1007.5
20260509004013 79 122 0.9 5.2 0.00 0.00 0.00 76 1007.5
20260509003012 79 110 5.2 5.2 0.00 0.00 0.00 76 1007.5
20260509002512 79 130 2.6 2.6 0.00 0.00 0.00 75 1007.5
20260509002012 79 164 0.0 2.6 0.00 0.00 0.00 75 1007.6
20260509001012 79 133 0.0 1.7 0.00 0.00 0.00 75 1007.6
20260509000512 80 141 0.0 2.6 0.00 0.00 0.00 75 1007.7
20260509000012 80 109 1.7 3.5 0.00 0.00 0.00 75 1007.6
20260508235512 80 196 1.7 3.5 0.00 0.00 0.00 74 1007.5
20260508235012 80 192 1.7 2.6 0.00 0.00 0.00 74 1007.5
20260508234512 80 125 0.9 1.7 0.00 0.00 0.00 74 1007.5
20260508234012 80 172 1.7 4.3 0.00 0.00 0.00 74 1007.6
20260508233512 81 119 0.9 4.3 0.00 0.00 0.00 74 1007.5
20260508233012 81 120 1.7 4.3 0.00 0.00 0.00 74 1007.5
20260508232512 81 168 0.9 7.0 0.00 0.00 0.00 74 1007.5
20260508232011 81 254 1.7 7.0 0.00 0.00 0.00 74 1007.6
20260508231512 81 133 0.9 3.5 0.00 0.00 0.00 73 1007.6
20260508231011 81 165 3.5 5.2 0.00 0.00 0.00 73 1007.7
20260508230512 81 176 2.6 5.2 0.00 0.00 0.00 73 1007.7
20260508230011 81 212 1.7 4.3 0.00 0.00 0.00 73 1007.7
20260508225511 81 205 3.5 4.3 0.00 0.00 0.00 73 1007.6
20260508225012 81 236 1.7 3.5 0.00 0.00 0.00 73 1007.6
20260508223511 81 206 0.9 3.5 0.00 0.00 0.00 72 1007.5
20260508223011 82 123 2.6 3.5 0.00 0.00 0.00 72 1007.5
20260508222511 82 217 0.9 2.6 0.00 0.00 0.00 71 1007.6
20260508222011 82 137 0.9 2.6 0.00 0.00 0.00 72 1007.6
20260508220510 82 220 0.9 7.0 0.00 0.00 0.00 72 1007.7
20260508220010 82 98 0.9 7.0 0.00 0.00 0.00 72 1007.7
20260508215010 81 90 2.6 2.6 0.00 0.00 0.00 72 1007.8
20260508214510 81 135 0.0 7.0 0.00 0.00 0.00 72 1007.9
20260508213510 81 140 0.0 1.7 0.00 0.00 0.00 72 1007.9
20260508212010 80 124 1.7 2.6 0.00 0.00 0.00 72 1008.2
20260508211510 80 105 0.0 1.7 0.00 0.00 0.00 72 1008.3
20260508211010 80 217 0.9 3.5 0.00 0.00 0.00 73 1008.4
20260508210510 80 113 0.0 3.5 0.00 0.00 0.00 72 1008.6
20260508210010 80 98 1.7 4.3 0.00 0.00 0.00 73 1008.6
20260508205510 80 84 0.9 4.3 0.00 0.00 0.00 72 1008.8
20260508205009 80 123 3.5 5.2 0.00 0.00 0.00 72 1008.7
20260508204509 80 71 2.6 5.2 0.00 0.00 0.00 72 1008.8
20260508204009 80 147 1.7 3.5 0.00 0.00 0.00 73 1008.8
20260508203509 80 111 2.6 5.2 0.00 0.00 0.00 72 1009.0
20260508203009 80 125 3.5 5.2 0.00 0.00 0.00 72 1008.9
20260508202510 80 121 4.3 4.3 0.00 0.00 0.00 72 1008.9
20260508202009 80 85 0.9 4.3 0.00 0.00 0.00 72 1009.0
20260508201509 80 107 2.6 3.5 0.00 0.00 0.00 72 1009.0
20260508201009 80 126 2.6 7.8 0.00 0.00 0.00 73 1008.8
20260508200509 79 127 3.5 7.8 0.00 0.00 0.00 72 1009.0
20260508200009 79 139 3.5 3.5 0.00 0.00 0.00 73 1009.2
20260508195509 79 219 0.9 6.1 0.00 0.00 0.00 73 1009.2
20260508195009 79 82 0.0 6.1 0.00 0.00 0.00 73 1009.3
20260508194509 79 187 2.6 3.5 0.00 0.00 0.00 73 1009.4
20260508194009 78 101 0.0 2.6 0.00 0.00 0.00 73 1009.4
20260508193009 78 5 0.9 7.0 0.00 0.00 0.00 73 1009.6
20260508192509 78 254 2.6 2.6 0.00 0.00 0.00 73 1009.6
20260508192009 78 112 0.0 1.7 0.00 0.00 0.00 73 1009.7
20260508191509 78 105 1.7 2.6 0.00 0.00 0.00 73 1009.7
20260508191008 78 112 0.9 2.6 0.00 0.00 0.00 73 1009.8
20260508190038 78 108 0.9 3.5 0.00 0.00 0.00 73 1009.8
20260508185508 78 115 0.9 1.7 0.00 0.00 0.00 73 1009.9
20260508185008 78 103 0.9 0.9 0.00 0.00 0.00 73 1010.0
20260508184508 77 55 0.0 4.3 0.00 0.00 0.00 73 1010.0
20260508184008 77 109 1.7 4.3 0.00 0.00 0.00 73 1010.1
20260508183508 77 164 1.7 5.2 0.00 0.00 0.00 74 1010.2
20260508183008 76 105 3.5 5.2 0.00 0.00 0.00 74 1010.2
20260508182508 76 115 0.9 7.8 0.00 0.00 0.00 74 1010.4
20260508182009 76 135 3.5 7.8 0.00 0.00 0.00 74 1010.5
20260508181008 76 85 0.0 5.2 0.00 0.00 0.00 74 1010.7
20260508180508 76 84 0.0 2.6 0.00 0.00 0.00 73 1010.8
20260508180038 76 108 0.0 0.9 0.00 0.00 0.00 74 1010.9
20260508175508 76 47 0.0 2.6 0.00 0.00 0.00 74 1010.9
20260508175008 75 101 0.9 2.6 0.00 0.00 0.00 74 1010.9
20260508174508 75 94 0.0 1.7 0.00 0.00 0.00 74 1011.0
20260508174008 75 103 0.9 0.9 0.00 0.00 0.00 73 1010.9
20260508173508 76 129 0.9 0.9 0.00 0.00 0.00 73 1011.1
20260508173008 76 98 0.0 3.5 0.00 0.00 0.00 73 1011.3
20260508172008 76 128 0.0 2.6 0.00 0.00 0.00 73 1011.3
20260508171508 76 75 0.9 0.9 0.00 0.00 0.00 73 1011.3
20260508171008 76 67 0.0 0.9 0.00 0.00 0.00 73 1011.2
20260508170508 76 111 0.0 2.6 0.00 0.00 0.00 73 1011.2
20260508165507 76 128 1.7 2.6 0.00 0.00 0.00 72 1011.4
20260508165008 76 111 0.0 4.3 0.00 0.00 0.00 73 1011.3
20260508164507 76 347 2.6 4.3 0.00 0.00 0.00 73 1011.3
20260508164007 75 67 0.0 2.6 0.00 0.00 0.00 73 1011.3
20260508163007 74 131 0.9 2.6 0.00 0.00 0.00 74 1011.3
20260508162507 73 138 0.9 2.6 0.00 0.00 0.00 75 1011.4
20260508162007 73 109 0.9 1.7 0.00 0.00 0.00 76 1011.6
20260508161507 73 139 0.0 0.9 0.00 0.00 0.00 75 1011.7
20260508160507 72 90 0.0 0.0 0.00 0.00 0.00 76 1012.0
20260508160007 72 90 0.0 0.9 0.00 0.00 0.00 76 1012.1
20260508155507 71 90 0.0 0.9 0.00 0.00 0.00 76 1012.0
20260508155007 71 90 0.0 1.7 0.00 0.00 0.00 76 1011.9
20260508154507 71 327 1.7 1.7 0.00 0.00 0.00 77 1011.9
20260508153507 70 153 0.0 0.9 0.00 0.00 0.00 77 1012.3
20260508153007 69 118 0.0 3.5 0.00 0.00 0.00 77 1012.2
20260508152507 69 123 3.5 3.5 0.00 0.00 0.00 77 1012.2
20260508152007 69 319 1.7 2.6 0.00 0.00 0.00 77 1012.3
20260508151006 68 150 0.9 1.7 0.00 0.00 0.00 78 1012.4
20260508150506 68 146 0.0 1.7 0.00 0.00 0.00 78 1012.5
20260508150007 67 111 0.0 1.7 0.00 0.00 0.00 78 1012.5
20260508145506 67 111 0.9 1.7 0.00 0.00 0.00 78 1012.5
20260508145006 67 104 0.0 0.9 0.00 0.00 0.00 78 1012.4
20260508144506 67 104 0.0 1.7 0.00 0.00 0.00 78 1012.4
20260508144007 67 104 0.9 1.7 0.00 0.00 0.00 78 1012.5
20260508143507 66 88 0.0 2.6 0.00 0.00 0.00 78 1012.5
20260508143006 66 323 1.7 2.6 0.00 0.00 0.00 78 1012.4
20260508142506 66 67 0.9 2.6 0.00 0.00 0.00 78 1012.2
20260508142006 65 96 0.0 2.6 0.00 0.00 0.00 78 1012.3
20260508141506 65 143 2.6 2.6 0.00 0.00 0.00 78 1012.5
20260508141006 65 111 0.9 2.6 0.00 0.00 0.00 78 1012.6
20260508140506 65 111 0.9 3.5 0.00 0.00 0.00 78 1012.6
20260508140006 65 111 3.5 3.5 0.00 0.00 0.00 78 1012.7
20260508135506 65 94 0.0 1.7 0.00 0.00 0.00 77 1012.7
20260508135006 65 42 1.7 1.7 0.00 0.00 0.00 77 1012.7
20260508134506 65 190 0.9 1.7 0.00 0.00 0.00 77 1012.7
20260508134006 65 88 0.0 1.7 0.00 0.00 0.00 77 1012.7
20260508133506 65 101 0.0 0.9 0.00 0.00 0.00 77 1012.9
20260508133006 65 101 0.0 0.9 0.00 0.00 0.00 77 1013.0
20260508132506 65 101 0.0 0.9 0.00 0.00 0.00 77 1013.0
20260508132006 65 101 0.0 1.7 0.00 0.00 0.00 77 1013.0
20260508131536 65 96 0.0 1.7 0.00 0.00 0.00 77 1012.8
20260508130535 65 98 0.9 1.7 0.00 0.00 0.00 77 1012.6
20260508130036 65 85 0.9 1.7 0.00 0.00 0.00 77 1012.7
20260508125535 65 76 0.0 1.7 0.00 0.00 0.00 77 1012.7
20260508125035 65 45 0.0 0.9 0.00 0.00 0.00 77 1012.7
20260508124535 65 223 0.0 2.6 0.00 0.00 0.00 77 1012.8
20260508124035 65 278 0.0 2.6 0.00 0.00 0.00 77 1012.6
20260508123535 65 5 1.7 2.6 0.00 0.00 0.00 77 1012.6
20260508123035 65 87 0.0 1.7 0.00 0.00 0.00 77 1012.6
20260508122535 65 27 0.0 3.5 0.00 0.00 0.00 77 1012.6
20260508122034 65 351 0.9 3.5 0.00 0.00 0.00 77 1012.6
20260508121535 65 59 0.0 0.9 0.00 0.00 0.00 77 1012.8
20260508121035 65 77 0.0 1.7 0.00 0.00 0.00 76 1012.9
20260508120034 65 74 0.0 0.9 0.00 0.00 0.00 76 1013.1
20260508115534 65 74 0.0 0.9 0.00 0.00 0.00 76 1013.3
20260508114534 65 70 0.0 0.9 0.00 0.00 0.00 76 1013.2
20260508114034 65 70 0.0 0.0 0.00 0.00 0.00 76 1013.4
20260508113533 65 70 0.0 0.0 0.00 0.00 0.00 76 1013.4
20260508113034 65 70 0.0 0.9 0.00 0.00 0.00 76 1013.4
20260508112534 65 70 0.0 0.9 0.00 0.00 0.00 76 1013.4
20260508112033 65 70 0.0 0.0 0.00 0.00 0.00 76 1013.4
20260508111533 65 70 0.0 0.0 0.00 0.00 0.00 76 1013.4
20260508111033 65 9 0.0 2.6 0.00 0.00 0.00 76 1013.2
20260508110533 65 342 0.9 2.6 0.00 0.00 0.00 76 1013.2
20260508110033 65 339 0.0 1.7 0.00 0.00 0.00 76 1013.2
20260508105533 65 36 0.9 1.7 0.00 0.00 0.00 76 1013.0
20260508105033 65 46 0.9 1.7 0.00 0.00 0.00 76 1013.1
20260508103533 65 76 0.0 0.9 0.00 0.00 0.00 76 1013.3
20260508102533 65 360 0.9 2.6 0.00 0.00 0.00 76 1013.0
20260508102033 64 47 0.0 1.7 0.00 0.00 0.00 76 1013.1
20260508101532 64 64 0.0 0.9 0.00 0.00 0.00 76 1012.9
20260508101032 64 22 0.9 0.9 0.00 0.00 0.00 75 1012.9
20260508100533 64 50 0.9 2.6 0.00 0.00 0.00 76 1013.1
20260508095532 64 13 1.7 1.7 0.00 0.00 0.00 76 1013.1
20260508095033 64 50 0.9 1.7 0.00 0.00 0.00 76 1013.1
20260508094533 64 69 0.0 0.9 0.00 0.00 0.00 76 1013.1
20260508094032 64 53 0.9 2.6 0.00 0.00 0.00 75 1013.3
20260508093032 64 355 1.7 2.6 0.00 0.00 0.00 75 1013.5
20260508092032 64 74 0.9 1.7 0.00 0.00 0.00 75 1013.4
20260508091532 64 11 0.0 2.6 0.00 0.00 0.00 75 1013.3
20260508091032 64 360 0.9 2.6 0.00 0.00 0.00 75 1013.1
20260508090532 64 78 0.0 0.9 0.00 0.00 0.00 75 1013.0
20260508090032 64 57 0.0 1.7 0.00 0.00 0.00 75 1013.0
20260508085532 64 13 0.0 1.7 0.00 0.00 0.00 75 1012.9
20260508085032 64 86 0.0 0.9 0.00 0.00 0.00 75 1013.0
20260508084532 64 5 0.9 0.9 0.00 0.00 0.00 75 1013.1
20260508084032 64 355 0.0 2.6 0.00 0.00 0.00 75 1013.2
20260508083532 64 19 0.0 2.6 0.00 0.00 0.00 75 1013.2
20260508083032 64 34 0.9 1.7 0.00 0.00 0.00 75 1013.3
20260508082532 64 80 0.0 1.7 0.00 0.00 0.00 75 1013.4
20260508082032 64 80 0.0 0.9 0.00 0.00 0.00 75 1013.3
20260508081032 64 78 0.0 0.9 0.00 0.00 0.00 75 1013.1
20260508080532 64 90 0.0 0.0 0.00 0.00 0.00 75 1013.4
20260508080032 64 90 0.0 0.9 0.00 0.00 0.00 75 1013.4
20260508075531 64 90 0.0 1.7 0.00 0.00 0.00 75 1013.2
20260508075031 64 44 1.7 2.6 0.00 0.00 0.00 74 1013.1
20260508074531 64 17 0.0 2.6 0.00 0.00 0.00 74 1013.1
20260508074032 64 5 0.0 1.7 0.00 0.00 0.00 75 1013.1
20260508073531 64 5 0.0 1.7 0.00 0.00 0.00 74 1013.2
20260508072031 64 96 0.0 3.5 0.00 0.00 0.00 74 1012.9
20260508071531 65 13 2.6 3.5 0.00 0.00 0.00 74 1013.1
20260508071032 65 68 0.0 2.6 0.00 0.00 0.00 74 1013.3
20260508070532 65 72 0.9 1.7 0.00 0.00 0.00 74 1013.2
20260508070032 65 95 0.9 1.7 0.00 0.00 0.00 74 1013.2
20260508065031 65 113 0.0 1.7 0.00 0.00 0.00 74 1013.6
20260508064531 65 84 0.9 1.7 0.00 0.00 0.00 74 1013.7
20260508064031 65 96 0.0 2.6 0.00 0.00 0.00 74 1013.9
20260508063031 65 355 0.9 2.6 0.00 0.00 0.00 74 1014.0
20260508061531 65 102 0.0 0.0 0.00 0.00 0.00 74 1014.1
20260508060531 64 102 0.0 0.0 0.00 0.00 0.00 74 1014.2
20260508060031 64 91 0.0 0.9 0.00 0.00 0.00 74 1013.9
20260508055531 64 110 0.0 0.9 0.00 0.00 0.00 74 1013.8
20260508055031 64 38 0.0 0.9 0.00 0.00 0.00 74 1014.0
20260508054531 64 93 0.9 1.7 0.00 0.00 0.00 74 1014.3
20260508054031 64 329 0.9 3.5 0.00 0.00 0.00 74 1014.3
20260508053530 64 360 1.7 3.5 0.00 0.00 0.00 74 1014.3
20260508053030 64 9 0.0 1.7 0.00 0.00 0.00 74 1014.1
20260508052530 64 27 0.9 1.7 0.00 0.00 0.00 74 1013.7
20260508052030 64 342 0.9 3.5 0.00 0.00 0.00 74 1014.1
20260508051530 64 78 1.7 3.5 0.00 0.00 0.00 73 1013.5
20260508051030 64 46 0.9 3.5 0.00 0.00 0.00 74 1013.5
20260508050530 64 103 2.6 2.6 0.00 0.00 0.00 74 1014.1
20260508050030 64 313 0.0 2.6 0.00 0.00 0.00 74 1014.3
20260508045530 64 34 0.0 3.5 0.00 0.00 0.00 74 1014.2
20260508045030 64 19 0.9 3.5 0.00 0.00 0.00 74 1014.5
20260508044530 64 94 1.7 2.6 0.00 0.00 0.00 74 1013.7
20260508044030 64 107 1.7 2.6 0.00 0.00 0.00 74 1013.2
20260508043530 64 56 0.0 0.9 0.00 0.00 0.00 74 1013.6
20260508043030 64 93 0.0 0.9 0.00 0.00 0.00 74 1013.5